EW4337 Weather Reports


Display with metric or nautical units.
time (UTC)temp
F
wind
direction
speed
MPH
gust
MPH
rain 1hr
in
rain 24hr
in
rain mn
in
humidity
%
barometer
mb
20260901081703 63 269 6.0 12.0 0.00 0.88 0.01 94 1016.4
20260901081203 63 259 3.0 10.0 0.00 0.88 0.01 95 1016.3
20260901080703 63 242 5.0 12.0 0.00 0.88 0.01 95 1016.3
20260901075703 62 262 7.0 12.0 0.00 0.88 0.01 96 1016.1
20260901075204 62 234 5.0 10.0 0.00 0.88 0.01 97 1016.1
20260901074703 62 250 7.0 12.0 0.00 0.88 0.01 97 1016.0
20260901074203 62 256 5.0 10.0 0.00 0.88 0.01 98 1016.0
20260901073704 62 243 7.0 12.0 0.00 0.88 0.01 98 1016.0
20260901072703 62 245 6.0 9.0 0.00 0.88 0.01 98 1015.8
20260901071203 62 240 6.0 12.0 0.00 0.88 0.01 98 1015.8
20260901070703 62 243 5.0 10.0 0.00 0.88 0.01 98 1015.7
20260901065703 61 239 5.0 10.0 0.00 0.88 0.01 99 1015.6
20260901065204 61 241 5.0 10.0 0.00 0.88 0.01 99 1015.7
20260901064703 61 245 5.0 10.0 0.00 0.88 0.01 98 1015.6
20260901064204 61 221 4.0 8.0 0.00 0.88 0.01 98 1015.6
20260901063704 61 248 5.0 13.0 0.00 0.88 0.01 99 1015.6
20260901063204 60 240 4.0 9.0 0.00 0.88 0.01 98 1015.5
20260901062703 60 231 4.0 8.0 0.00 0.88 0.01 99 1015.5
20260901062205 60 231 3.0 7.0 0.00 0.88 0.01 99 1015.5
20260901061703 60 227 3.0 7.0 0.00 0.88 0.01 98 1015.4
20260901061204 60 224 3.0 6.0 0.00 0.88 0.01 98 1015.3
20260901060704 59 208 3.0 6.0 0.00 0.88 0.01 98 1015.3
20260901055704 59 231 3.0 6.0 0.00 0.88 0.01 98 1015.2
20260901054704 59 210 3.0 6.0 0.00 0.88 0.01 98 1015.1
20260901053703 59 226 3.0 6.0 0.00 0.88 0.01 98 1015.0
20260901053204 59 229 3.0 7.0 0.00 0.88 0.01 98 1014.9
20260901052703 59 232 3.0 6.0 0.00 0.88 0.01 98 1014.9
20260901052205 59 236 3.0 7.0 0.00 0.88 0.01 98 1014.8
20260901051704 59 231 2.0 5.0 0.00 0.88 0.01 98 1014.8
20260901051203 59 233 2.0 8.0 0.00 0.88 0.01 98 1014.7
20260901050704 59 235 3.0 9.0 0.00 0.88 0.01 98 1014.7
20260901050204 59 224 3.0 6.0 0.00 0.88 0.01 98 1014.8
20260901045704 58 223 3.0 7.0 0.00 0.88 0.01 98 1014.7
20260901045203 58 231 3.0 6.0 0.00 0.88 0.01 98 1014.8
20260901043704 58 228 1.0 3.0 0.00 0.88 0.01 98 1014.6
20260901043204 58 234 2.0 3.0 0.00 0.88 0.01 98 1014.6
20260901042704 58 219 2.0 3.0 0.00 0.88 0.01 98 1014.6
20260901042204 58 225 2.0 3.0 0.00 0.88 0.01 98 1014.6
20260901041704 58 227 2.0 6.0 0.00 0.88 0.01 98 1014.6
20260901041204 59 240 2.0 3.0 0.00 0.88 0.01 98 1014.5
20260901040202 59 215 2.0 5.0 0.00 0.88 0.01 98 1014.4
20260901035703 59 226 2.0 3.0 0.00 0.89 0.01 98 1014.5
20260901034703 58 228 2.0 3.0 0.00 0.89 0.01 98 1014.3
20260901033703 58 221 1.0 3.0 0.00 0.89 0.01 98 1014.3
20260901033203 59 237 2.0 3.0 0.00 0.89 0.01 98 1014.2
20260901032704 59 230 1.0 3.0 0.00 0.89 0.01 98 1014.1
20260901032203 59 237 2.0 3.0 0.00 0.89 0.01 98 1014.2
20260901031703 59 222 2.0 5.0 0.00 0.89 0.01 98 1014.1
20260901031204 59 215 1.0 3.0 0.00 0.89 0.01 98 1014.1
20260901030703 59 220 2.0 3.0 0.00 0.89 0.01 98 1014.1
20260901030203 59 216 2.0 3.0 0.00 0.89 0.01 98 1014.1
20260901025703 59 211 2.0 5.0 0.00 0.89 0.01 98 1014.1
20260901025203 59 205 2.0 5.0 0.00 0.89 0.01 98 1014.1
20260901024703 59 217 2.0 3.0 0.00 0.89 0.01 98 1014.1
20260901024203 59 209 1.0 3.0 0.00 0.89 0.01 98 1014.1
20260901023703 59 212 2.0 3.0 0.00 0.89 0.01 98 1014.1
20260901023203 59 216 2.0 3.0 0.00 0.89 0.01 98 1014.1
20260901022203 59 234 2.0 3.0 0.00 0.89 0.01 98 1014.1
20260901021703 59 213 1.0 2.0 0.00 0.89 0.01 97 1014.1
20260901021203 60 197 1.0 3.0 0.00 0.89 0.01 97 1014.0
20260901020703 60 226 2.0 3.0 0.00 0.89 0.01 98 1014.1
20260901020203 60 228 2.0 5.0 0.00 0.89 0.01 98 1014.1
20260901015703 60 238 2.0 3.0 0.00 0.89 0.01 98 1014.0
20260901015204 60 238 2.0 5.0 0.00 0.89 0.01 98 1014.0
20260901014204 60 229 2.0 3.0 0.00 0.89 0.01 98 1014.0
20260901013203 60 229 3.0 3.0 0.00 0.89 0.01 98 1013.9
20260901012203 60 234 3.0 6.0 0.00 0.89 0.01 98 1013.8
20260901011204 60 233 2.0 3.0 0.00 0.89 0.01 98 1013.7
20260901010703 60 224 3.0 6.0 0.00 0.89 0.01 98 1013.7
20260901010203 60 225 3.0 6.0 0.00 0.89 0.01 98 1013.7
20260901005704 60 236 3.0 6.0 0.00 0.89 0.01 98 1013.7
20260901005203 60 237 3.0 5.0 0.00 0.89 0.01 98 1013.7
20260901004704 60 224 3.0 6.0 0.00 0.89 0.01 98 1013.6
20260901003204 60 231 2.0 5.0 0.00 0.89 0.01 98 1013.6
20260901002703 60 239 2.0 3.0 0.00 0.89 0.01 98 1013.6
20260901002204 60 231 2.0 5.0 0.00 0.89 0.01 98 1013.5
20260901001703 60 222 2.0 5.0 0.00 0.89 0.01 98 1013.5
20260901000704 60 241 4.0 8.0 0.00 0.89 0.01 98 1013.5
20260901000204 60 237 3.0 6.0 0.00 0.89 0.01 98 1013.5
20260831235704 60 236 3.0 6.0 0.01 0.89 0.01 98 1013.5
20260831234703 60 235 3.0 5.0 0.01 0.89 0.01 97 1013.5
20260831234204 59 238 2.0 5.0 0.01 0.89 0.01 97 1013.5
20260831233704 59 236 2.0 3.0 0.01 0.89 0.01 97 1013.4
20260831233204 59 241 2.0 3.0 0.01 0.89 0.01 97 1013.5
20260831232704 59 234 2.0 3.0 0.01 0.89 0.01 97 1013.5
20260831232203 59 229 3.0 7.0 0.01 0.89 0.01 97 1013.4
20260831231704 59 238 3.0 6.0 0.01 0.89 0.01 97 1013.4
20260831231204 60 235 2.0 3.0 0.01 0.89 0.01 97 1013.4
20260831230204 60 229 3.0 6.0 0.01 0.89 0.01 97 1013.4
20260831225704 60 235 3.0 7.0 0.00 0.88 0.00 97 1013.3
20260831225204 60 232 3.0 7.0 0.00 0.88 0.00 97 1013.3
20260831224704 60 234 2.0 3.0 0.00 0.88 0.00 97 1013.3
20260831224204 60 245 3.0 7.0 0.00 0.88 0.00 97 1013.2
20260831223705 60 248 3.0 8.0 0.00 0.88 0.00 97 1013.3
20260831223204 60 235 4.0 8.0 0.00 0.88 0.00 97 1013.3
20260831222204 60 242 3.0 6.0 0.00 0.88 0.00 97 1013.2
20260831221705 60 224 4.0 8.0 0.00 0.88 0.00 97 1013.2
20260831220704 60 239 3.0 5.0 0.00 0.88 0.00 97 1013.2
20260831220204 60 237 3.0 5.0 0.00 0.88 0.00 97 1013.1
20260831215703 60 237 3.0 5.0 0.00 0.88 0.88 97 1013.0
20260831215204 60 244 3.0 6.0 0.00 0.88 0.88 97 1013.0
20260831214704 60 242 2.0 6.0 0.00 0.88 0.88 97 1012.9
20260831214203 60 233 3.0 7.0 0.00 0.88 0.88 97 1012.9
20260831213703 60 240 3.0 6.0 0.00 0.88 0.88 97 1012.8
20260831213204 60 243 3.0 6.0 0.00 0.88 0.88 97 1012.7
20260831212703 60 230 3.0 5.0 0.00 0.88 0.88 97 1012.7
20260831212203 60 241 3.0 8.0 0.00 0.88 0.88 97 1012.7
20260831211704 60 246 5.0 8.0 0.00 0.88 0.88 97 1012.7
20260831211205 61 240 4.0 8.0 0.00 0.88 0.88 97 1012.6
20260831210203 61 231 5.0 10.0 0.00 0.88 0.88 97 1012.5
20260831205703 61 242 3.0 7.0 0.00 0.88 0.88 97 1012.5
20260831205203 61 248 3.0 6.0 0.00 0.88 0.88 97 1012.5
20260831204203 61 241 4.0 8.0 0.00 0.88 0.88 97 1012.3
20260831203703 61 249 5.0 12.0 0.00 0.88 0.88 97 1012.3
20260831203204 61 236 5.0 9.0 0.00 0.88 0.88 97 1012.3
20260831202704 61 247 3.0 8.0 0.02 0.88 0.88 97 1012.2
20260831202203 61 252 5.0 10.0 0.02 0.88 0.88 97 1012.1
20260831201204 61 241 3.0 7.0 0.02 0.88 0.88 96 1012.0
20260831195705 61 236 5.0 8.0 0.06 0.88 0.88 96 1011.8
20260831195204 61 250 5.0 8.0 0.06 0.88 0.88 96 1011.7
20260831194703 62 257 2.0 3.0 0.06 0.88 0.88 96 1011.6
20260831194204 62 280 2.0 6.0 0.06 0.88 0.88 96 1011.6
20260831193205 61 245 3.0 9.0 0.06 0.88 0.88 96 1011.4
20260831192704 61 238 5.0 9.0 0.05 0.87 0.87 96 1011.3
20260831192204 61 233 5.0 12.0 0.05 0.87 0.87 96 1011.3
20260831191704 61 235 5.0 9.0 0.05 0.87 0.87 96 1011.3
20260831191204 61 239 6.0 12.0 0.05 0.87 0.87 96 1011.3
20260831190704 61 251 4.0 8.0 0.05 0.87 0.87 96 1011.2
20260831185703 61 273 6.0 12.0 0.00 0.82 0.82 96 1011.0
20260831185202 61 243 6.0 10.0 0.00 0.82 0.82 96 1010.8
20260831184703 61 258 5.0 8.0 0.00 0.82 0.82 96 1010.8
20260831184203 61 251 5.0 12.0 0.00 0.82 0.82 96 1010.6
20260831183704 62 260 5.0 8.0 0.00 0.82 0.82 96 1010.6
20260831183202 62 243 4.0 13.0 0.00 0.82 0.82 96 1010.5
20260831182702 62 263 5.0 10.0 0.00 0.82 0.82 96 1010.4
20260831182203 62 257 4.0 9.0 0.00 0.82 0.82 96 1010.3
20260831181702 62 245 5.0 7.0 0.00 0.82 0.82 96 1010.2
20260831181202 62 237 6.0 10.0 0.00 0.82 0.82 96 1010.1
20260831175203 62 239 5.0 10.0 0.17 0.82 0.82 95 1009.6
20260831174202 62 243 7.0 15.0 0.19 0.82 0.82 95 1009.5
20260831172203 62 243 7.0 13.0 0.20 0.82 0.82 94 1009.3
20260831171703 62 243 6.0 12.0 0.20 0.82 0.82 94 1009.2
20260831171203 62 235 6.0 10.0 0.20 0.82 0.82 94 1009.3
20260831170703 62 272 5.0 9.0 0.20 0.82 0.82 93 1009.2
20260831165203 63 239 8.0 12.0 0.03 0.65 0.65 92 1009.2
20260831164702 63 265 7.0 15.0 0.02 0.65 0.65 91 1009.1
20260831164203 63 241 8.0 21.0 0.01 0.63 0.63 90 1009.1
20260831163203 64 261 7.0 15.0 0.00 0.62 0.62 89 1008.9
20260831162703 64 271 9.0 17.0 0.00 0.62 0.62 89 1008.8
20260831162202 64 234 9.0 15.0 0.00 0.62 0.62 89 1008.7
20260831161703 64 250 9.0 16.0 0.00 0.62 0.62 88 1008.7
20260831161203 64 270 8.0 15.0 0.00 0.62 0.62 88 1008.6
20260831160703 64 263 7.0 13.0 0.00 0.62 0.62 88 1008.6
20260831160203 64 286 8.0 15.0 0.00 0.62 0.62 87 1008.5
20260831155703 64 247 11.0 20.0 0.00 0.62 0.62 87 1008.4
20260831155203 64 255 11.0 20.0 0.00 0.62 0.62 87 1008.4
20260831154703 65 246 10.0 17.0 0.00 0.62 0.62 86 1008.4
20260831154203 65 253 10.0 16.0 0.00 0.62 0.62 86 1008.3
20260831153203 65 280 11.0 20.0 0.01 0.62 0.62 86 1008.2
20260831152703 66 251 9.0 21.0 0.01 0.62 0.62 85 1008.2
20260831152203 66 262 12.0 21.0 0.01 0.62 0.62 86 1008.1
20260831151203 65 254 7.0 16.0 0.01 0.62 0.62 86 1008.0
20260831150703 65 276 10.0 20.0 0.01 0.62 0.62 87 1008.0
20260831150203 64 238 9.0 20.0 0.01 0.62 0.62 87 1008.0
20260831145703 64 257 8.0 15.0 0.01 0.62 0.62 88 1008.0
20260831145203 63 256 6.0 16.0 0.01 0.62 0.62 88 1008.0
20260831144703 63 247 7.0 16.0 0.01 0.62 0.62 87 1008.0
20260831144203 63 254 7.0 17.0 0.01 0.62 0.62 87 1008.0
20260831143703 63 241 9.0 20.0 0.01 0.62 0.62 86 1007.9
20260831143203 63 243 7.0 14.0 0.01 0.61 0.61 87 1007.9
20260831142703 63 251 6.0 14.0 0.01 0.61 0.61 88 1007.8
20260831141704 64 256 9.0 14.0 0.01 0.61 0.61 88 1007.5
20260831141203 64 244 8.0 16.0 0.01 0.61 0.61 89 1007.4
20260831135703 64 244 10.0 15.0 0.01 0.61 0.61 89 1007.2
20260831134704 64 266 6.0 9.0 0.01 0.61 0.61 89 1007.1
20260831134203 65 257 5.0 12.0 0.01 0.61 0.61 87 1007.0
20260831133703 65 250 6.0 16.0 0.01 0.61 0.61 86 1007.0
20260831132703 66 238 10.0 33.0 0.00 0.61 0.61 85 1006.8
20260831132204 67 226 7.0 18.0 0.00 0.61 0.61 85 1006.6
20260831131703 66 241 6.0 12.0 0.00 0.61 0.61 86 1006.7
20260831131203 65 265 7.0 14.0 0.00 0.61 0.61 87 1006.7
20260831130704 66 248 7.0 16.0 0.00 0.61 0.61 85 1006.8
20260831125704 66 253 11.0 20.0 0.00 0.61 0.61 86 1006.5
20260831125204 66 233 9.0 16.0 0.00 0.61 0.61 87 1006.6
20260831124704 65 245 7.0 12.0 0.00 0.61 0.61 88 1006.5
20260831123704 64 213 7.0 17.0 0.00 0.61 0.61 92 1006.5
20260831123204 63 204 6.0 12.0 0.01 0.61 0.61 92 1006.5
20260831122703 63 219 5.0 12.0 0.02 0.61 0.61 93 1006.5
20260831122203 63 211 3.0 9.0 0.02 0.61 0.61 94 1006.3
20260831121204 61 172 3.0 9.0 0.04 0.61 0.61 95 1006.2
20260831120704 61 173 3.0 8.0 0.09 0.61 0.61 96 1006.2
20260831120203 59 219 2.0 6.0 0.09 0.61 0.61 95 1006.4
20260831115704 59 205 3.0 8.0 0.10 0.61 0.61 94 1006.7
20260831114704 59 221 4.0 10.0 0.35 0.61 0.61 93 1006.7
20260831113703 59 213 3.0 10.0 0.43 0.61 0.61 93 1006.6
20260831113204 59 238 8.0 17.0 0.48 0.60 0.60 93 1006.5
20260831112704 59 256 6.0 14.0 0.47 0.58 0.58 93 1006.7
20260831112204 60 248 7.0 17.0 0.51 0.58 0.58 93 1006.7
20260831111704 60 239 8.0 16.0 0.52 0.58 0.58 93 1006.6
20260831111204 60 258 7.0 17.0 0.56 0.57 0.57 93 1006.4
20260831110704 60 244 5.0 9.0 0.51 0.52 0.52 93 1006.2
20260831105704 60 276 6.0 12.0 0.50 0.50 0.50 91 1006.0
20260831105205 60 254 5.0 8.0 0.34 0.35 0.35 91 1005.9
20260831104704 61 240 5.0 12.0 0.24 0.25 0.25 90 1006.1
20260831104204 61 263 5.0 13.0 0.20 0.20 0.20 89 1006.0
20260831103704 62 253 9.0 20.0 0.17 0.17 0.17 88 1006.2
20260831103204 63 243 12.0 18.0 0.11 0.12 0.12 88 1006.3
20260831102704 64 260 10.0 20.0 0.10 0.11 0.11 88 1006.6
20260831102204 65 186 4.0 13.0 0.06 0.07 0.07 85 1005.9
20260831101204 67 185 7.0 17.0 0.00 0.02 0.01 80 1005.8
20260831100704 68 196 3.0 15.0 0.00 0.02 0.01 79 1005.7
20260831100204 68 221 6.0 12.0 0.00 0.02 0.01 79 1005.7
20260831095204 68 237 10.0 20.0 0.00 0.02 0.01 79 1005.9
20260831094704 67 219 9.0 13.0 0.00 0.02 0.01 82 1006.0
20260831094202 67 237 6.0 16.0 0.00 0.02 0.01 83 1006.0
20260831093202 67 193 6.0 12.0 0.00 0.02 0.01 81 1006.1
20260831092702 68 217 9.0 18.0 0.00 0.02 0.01 80 1006.1
20260831092203 68 215 5.0 16.0 0.00 0.02 0.01 81 1006.1
20260831091203 68 171 10.0 21.0 0.00 0.02 0.01 82 1006.0
20260831090703 67 212 6.0 20.0 0.00 0.02 0.01 83 1006.0
20260831085702 67 187 7.0 18.0 0.00 0.02 0.01 83 1006.0
20260831085203 67 172 6.0 16.0 0.00 0.02 0.01 85 1005.9
20260831084702 66 209 10.0 20.0 0.00 0.02 0.01 87 1005.8
20260831084203 66 186 6.0 14.0 0.00 0.02 0.01 88 1005.7
20260831083703 65 190 9.0 24.0 0.00 0.02 0.01 88 1005.7
20260831083203 65 187 5.0 12.0 0.00 0.02 0.01 89 1005.6
20260831082702 65 232 7.0 15.0 0.00 0.02 0.01 88 1005.6